SCP
-0 -0 0 -0 0 0 0 0 0 0 0 0 0 0 0 0 0 0 0 0 0 0 0 0 -0 -0 -0 -0 -0 -0 -0 -0 -0
-0 -0 0 0 0 0 0 0 0 0 0 0 0 0 0 0 0 0 0 0 0 0 0 0 0 0 -0 -0 -0 -0 -0 -0 -0
-0 -0 -0 -0 0 0 0 0 0 0 0 0 0 0 0 0 0 0 0 0 0 0 0 0 0 0 0 0 0 0 0 -0 -0
-0 -0 -0 -0 0 -0 -0 0 0 0 0 0 0 0 0 0 0 0 0 0 0 0 0 0 0 0 0 0 0 0 0 0 0
-0 -0 -0 -0 -0 -0 -0 0 0 0 0 0 0 0 0 0 0 0 0 0 0 0 0 0 0 0 0 0 0 0 0 0 0
-0 -0 -0 -0 -0 -0 0 -0 0 0 0 0 0 0 0 0 0 0 0 0 0 0 0 0 0 0 0 0 0 0 0 0 0
-0 -0 -0 -0 -0 -0 -0 -0 -0 -0 0 0 0 0 0 0 0 0 0 0 0 0 0 0 0 0 0 0 0 0 0 0 0
0 -0 -0 0 -0 0 0 0 0 0 0 0 0 0 0 0 0 0 -0 0 0 0 0 0 0 0 0 -0 0 0 0 0 0
0 0 0 0 0 0 0 0 0 -0 0 0 0 0 0 0 0 0 -0 -0 -0 0 0 0 0 0 0 0 0 0 0 0 0
0 0 0 -0 0 0 -0 -0 -0 -0 -0 0 0 0 0 0 0 0 -0 -0 -0 -0 -0 0 0 0 0 0 0 0 0 0 0
0 0 0 0 0 0 0 0 0 0 -0 0 0 0 0 0 0 0 0 0 0 0 -0 -0 -0 0 0 0 0 0 0 0 0
0 0 0 0 0 0 0 0 0 0 0 0 0 0 0 0 0 0 0 0 0 0 0 0 -0 -0 0 0 0 0 0 0 0
0 0 0 0 0 0 0 0 0 0 0 0 0 0 0 0 0 0 0 0 0 0 0 0 0 0 0 0 0 0 0 0 0
0 0 0 0 0 0 0 0 0 0 0 0 0 0 0 0 0 0 0 0 0 0 0 0 0 0 0 0 0 0 0 0 0
0 0 0 0 0 0 0 0 0 0 0 0 0 0 0 0 0 0 0 0 0 0 0 0 0 0 0 0 0 0 0 0 0
0 0 0 0 0 0 0 0 0 0 0 0 0 0 0 0 0 0 0 0 0 0 0 0 0 0 0 0 0 0 0 0 0
0 0 0 0 0 0 0 0 0 0 0 0 0 0 0 0 0 0 0 0 0 0 0 0 0 0 0 0 0 0 0 0 0
0 0 0 0 0 0 0 0 0 0 0 0 0 0 0 0 0 0 0 0 0 0 0 0 0 0 0 0 0 0 0 0 0
0 0 0 0 0 0 0 0 0 0 0 0 0 0 0 0 0 0 0 0 0 0 0 0 0 0 0 0 0 0 0 0 0
0 0 0 0 0 0 0 0 0 0 0 0 0 0 0 0 0 0 0 0 0 0 0 0 0 0 0 0 0 0 0 0 0
Wind_Speed_500mb
35 27 28 18 12 15 14 17 21 22 23 25 26 25 23 21 21 22 22 22 25 28 30 31 30 28 27 26 25 27 27 27 28
28 26 16 11 9 13 13 14 16 20 20 24 25 26 21 21 21 19 19 20 21 25 26 26 26 24 25 25 25 24 23 22 22
22 19 12 9 12 9 13 10 11 15 16 18 22 23 22 18 19 18 17 18 19 21 21 21 21 21 21 22 21 20 21 20 19
11 5 6 7 11 11 10 11 8 9 11 17 18 21 22 18 16 15 15 16 15 19 21 15 15 17 18 18 17 17 17 18 17
6 3 1 5 4 6 8 5 6 8 9 12 14 15 18 21 18 15 11 12 12 12 11 10 9 13 15 15 14 14 15 14 13
9 5 2 3 5 6 6 8 10 11 13 13 11 12 14 16 19 15 13 10 9 8 9 11 11 9 10 9 8 8 9 10 11
11 9 3 1 1 6 8 8 11 13 15 12 8 10 12 15 17 15 14 8 8 10 10 11 9 8 7 9 7 8 9 8 8
10 13 9 4 7 9 13 13 12 12 12 11 8 9 9 12 12 14 13 10 8 8 8 9 9 7 8 7 4 3 5 6 6
10 12 13 13 14 14 18 17 15 11 5 9 9 8 1 9 9 13 12 9 12 8 5 6 6 3 3 4 7 6 2 3 2
11 13 15 18 16 13 9 7 12 9 6 1 4 4 0 3 5 9 12 9 8 8 7 4 1 7 7 7 6 6 5 5 6
10 10 15 11 9 10 7 4 0 3 5 10 12 7 7 11 9 8 13 15 10 6 5 3 3 4 6 8 7 9 10 10 10
8 8 13 10 9 9 7 0 2 4 6 12 16 18 16 19 14 19 18 15 18 16 12 9 8 4 2 6 10 12 13 14 14
6 9 8 10 8 6 6 7 11 14 16 19 22 20 19 24 22 19 20 17 18 18 18 18 17 11 7 4 3 10 15 16 19
9 6 8 8 7 8 10 8 6 10 12 16 17 20 17 16 22 26 25 25 26 21 20 22 21 22 19 20 20 13 10 17 21
14 9 4 3 13 9 11 9 11 14 18 20 17 17 17 14 16 31 29 26 25 21 22 26 24 28 28 27 29 30 23 23 20
12 16 15 9 5 7 7 10 16 18 16 16 18 16 13 14 14 11 15 28 23 24 31 27 26 29 33 35 36 35 38 40 32
7 12 13 16 16 12 11 8 7 9 16 19 19 13 11 7 21 5 13 3 10 20 26 32 35 37 36 37 37 41 44 44 44
3 4 8 11 14 16 15 11 10 10 12 18 14 11 8 34 2 24 2 9 13 20 18 20 22 23 26 35 42 44 46 48 48
6 5 7 9 11 11 11 13 14 12 14 14 14 17 20 13 20 24 40 30 32 30 25 27 28 29 30 30 31 33 35 37 44
9 10 11 11 11 12 12 11 11 12 11 13 16 20 23 27 30 35 39 53 42 43 38 37 38 38 38 37 39 39 39 38 37
Wind_Direction_500mb
105 125 83 73 71 77 68 84 83 80 80 81 83 90 95 105 108 114 115 108 103 109 108 105 102 99 96 92 90 92 97 100 98
115 106 96 74 55 57 60 74 80 80 80 83 84 80 86 102 110 113 114 113 108 115 112 107 104 101 97 93 93 94 97 100 100
118 114 111 61 61 46 81 86 91 89 83 79 80 76 76 92 100 110 116 111 110 113 111 105 100 98 97 96 91 87 89 93 93
146 142 86 48 15 38 40 70 81 94 90 91 80 75 74 83 89 93 102 113 120 126 113 88 96 100 102 98 88 84 86 88 91
127 132 48 39 25 346 14 95 102 118 119 104 83 76 83 75 73 78 85 98 115 118 125 116 104 92 90 92 86 81 84 89 89
84 68 345 340 348 24 25 67 114 122 125 104 74 82 76 69 67 70 67 90 128 142 143 133 113 87 89 92 102 96 102 80 87
64 66 64 300 39 48 70 88 112 126 134 113 114 86 77 71 58 55 55 63 95 105 111 118 116 116 92 69 78 99 92 92 87
67 66 76 96 97 96 86 94 108 119 147 133 131 100 72 63 49 34 42 49 68 96 117 127 133 120 103 114 122 83 122 114 108
76 71 74 83 97 97 90 87 90 100 135 133 144 165 293 26 48 26 16 38 52 75 107 142 166 201 254 248 228 261 196 179 174
89 97 100 88 82 102 92 85 67 87 116 189 34 263 193 325 335 9 341 356 32 48 78 122 222 269 284 274 260 254 246 241 243
118 120 112 116 117 121 109 118 97 6 341 304 294 302 283 244 251 277 302 329 310 334 14 5 349 339 308 272 271 258 252 250 253
132 151 155 139 153 119 127 251 354 305 306 280 298 273 261 248 244 246 265 286 304 295 290 303 315 316 327 292 276 270 269 264 260
93 164 166 123 183 218 261 274 285 285 284 289 293 290 269 245 246 255 258 263 269 287 294 298 294 287 265 313 262 276 279 271 270
57 93 174 168 188 239 252 278 315 315 303 305 317 321 314 255 237 246 258 262 269 269 287 295 295 289 279 263 288 292 302 284 280
51 46 45 206 219 241 258 259 279 301 315 321 323 316 317 319 282 252 250 254 265 269 273 273 284 293 286 276 267 270 278 286 296
358 19 18 5 322 248 256 272 269 288 315 328 315 324 284 285 4 345 270 249 262 272 271 272 272 282 286 281 275 269 266 267 274
327 331 336 346 358 341 321 308 293 340 327 340 337 345 356 71 336 7 10 32 267 275 286 281 277 277 278 280 279 275 272 269 267
50 2 341 331 327 319 345 352 336 329 336 347 6 347 335 321 155 325 48 316 306 316 309 308 301 303 292 281 281 282 281 275 269
35 2 345 333 332 325 319 309 312 312 303 307 298 319 319 319 309 289 294 302 313 306 300 308 308 305 302 300 297 288 289 288 274
27 22 16 1 343 336 331 327 323 318 301 290 282 271 279 285 292 302 296 299 299 298 302 307 308 305 299 299 299 294 292 291 284
Wind_Speed_850mb
35 27 28 18 12 15 14 17 21 22 23 25 26 25 23 21 21 22 22 22 25 28 30 31 30 28 27 26 25 27 27 27 28
28 26 16 11 9 13 13 14 16 20 20 24 25 26 21 21 21 19 19 20 21 25 26 26 26 24 25 25 25 24 23 22 22
22 19 12 9 12 9 13 10 11 15 16 18 22 23 22 18 19 18 17 18 19 21 21 21 21 21 21 22 21 20 21 20 19
11 5 6 7 11 11 10 11 8 9 11 17 18 21 22 18 16 15 15 16 15 19 21 15 15 17 18 18 17 17 17 18 17
6 3 1 5 4 6 8 5 6 8 9 12 14 15 18 21 18 15 11 12 12 12 11 10 9 13 15 15 14 14 15 14 13
9 5 2 3 5 6 6 8 10 11 13 13 11 12 14 16 19 15 13 10 9 8 9 11 11 9 10 9 8 8 9 10 11
11 9 3 1 1 6 8 8 11 13 15 12 8 10 12 15 17 15 14 8 8 10 10 11 9 8 7 9 7 8 9 8 8
10 13 9 4 7 9 13 13 12 12 12 11 8 9 9 12 12 14 13 10 8 8 8 9 9 7 8 7 4 3 5 6 6
10 12 13 13 14 14 18 17 15 11 5 9 9 8 1 9 9 13 12 9 12 8 5 6 6 3 3 4 7 6 2 3 2
11 13 15 18 16 13 9 7 12 9 6 1 4 4 0 3 5 9 12 9 8 8 7 4 1 7 7 7 6 6 5 5 6
10 10 15 11 9 10 7 4 0 3 5 10 12 7 7 11 9 8 13 15 10 6 5 3 3 4 6 8 7 9 10 10 10
8 8 13 10 9 9 7 0 2 4 6 12 16 18 16 19 14 19 18 15 18 16 12 9 8 4 2 6 10 12 13 14 14
6 9 8 10 8 6 6 7 11 14 16 19 22 20 19 24 22 19 20 17 18 18 18 18 17 11 7 4 3 10 15 16 19
9 6 8 8 7 8 10 8 6 10 12 16 17 20 17 16 22 26 25 25 26 21 20 22 21 22 19 20 20 13 10 17 21
14 9 4 3 13 9 11 9 11 14 18 20 17 17 17 14 16 31 29 26 25 21 22 26 24 28 28 27 29 30 23 23 20
12 16 15 9 5 7 7 10 16 18 16 16 18 16 13 14 14 11 15 28 23 24 31 27 26 29 33 35 36 35 38 40 32
7 12 13 16 16 12 11 8 7 9 16 19 19 13 11 7 21 5 13 3 10 20 26 32 35 37 36 37 37 41 44 44 44
3 4 8 11 14 16 15 11 10 10 12 18 14 11 8 34 2 24 2 9 13 20 18 20 22 23 26 35 42 44 46 48 48
6 5 7 9 11 11 11 13 14 12 14 14 14 17 20 13 20 24 40 30 32 30 25 27 28 29 30 30 31 33 35 37 44
9 10 11 11 11 12 12 11 11 12 11 13 16 20 23 27 30 35 39 53 42 43 38 37 38 38 38 37 39 39 39 38 37
Wind_Direction_850mb
105 125 83 73 71 77 68 84 83 80 80 81 83 90 95 105 108 114 115 108 103 109 108 105 102 99 96 92 90 92 97 100 98
115 106 96 74 55 57 60 74 80 80 80 83 84 80 86 102 110 113 114 113 108 115 112 107 104 101 97 93 93 94 97 100 100
118 114 111 61 61 46 81 86 91 89 83 79 80 76 76 92 100 110 116 111 110 113 111 105 100 98 97 96 91 87 89 93 93
146 142 86 48 15 38 40 70 81 94 90 91 80 75 74 83 89 93 102 113 120 126 113 88 96 100 102 98 88 84 86 88 91
127 132 48 39 25 346 14 95 102 118 119 104 83 76 83 75 73 78 85 98 115 118 125 116 104 92 90 92 86 81 84 89 89
84 68 345 340 348 24 25 67 114 122 125 104 74 82 76 69 67 70 67 90 128 142 143 133 113 87 89 92 102 96 102 80 87
64 66 64 300 39 48 70 88 112 126 134 113 114 86 77 71 58 55 55 63 95 105 111 118 116 116 92 69 78 99 92 92 87
67 66 76 96 97 96 86 94 108 119 147 133 131 100 72 63 49 34 42 49 68 96 117 127 133 120 103 114 122 83 122 114 108
76 71 74 83 97 97 90 87 90 100 135 133 144 165 293 26 48 26 16 38 52 75 107 142 166 201 254 248 228 261 196 179 174
89 97 100 88 82 102 92 85 67 87 116 189 34 263 193 325 335 9 341 356 32 48 78 122 222 269 284 274 260 254 246 241 243
118 120 112 116 117 121 109 118 97 6 341 304 294 302 283 244 251 277 302 329 310 334 14 5 349 339 308 272 271 258 252 250 253
132 151 155 139 153 119 127 251 354 305 306 280 298 273 261 248 244 246 265 286 304 295 290 303 315 316 327 292 276 270 269 264 260
93 164 166 123 183 218 261 274 285 285 284 289 293 290 269 245 246 255 258 263 269 287 294 298 294 287 265 313 262 276 279 271 270
57 93 174 168 188 239 252 278 315 315 303 305 317 321 314 255 237 246 258 262 269 269 287 295 295 289 279 263 288 292 302 284 280
51 46 45 206 219 241 258 259 279 301 315 321 323 316 317 319 282 252 250 254 265 269 273 273 284 293 286 276 267 270 278 286 296
358 19 18 5 322 248 256 272 269 288 315 328 315 324 284 285 4 345 270 249 262 272 271 272 272 282 286 281 275 269 266 267 274
327 331 336 346 358 341 321 308 293 340 327 340 337 345 356 71 336 7 10 32 267 275 286 281 277 277 278 280 279 275 272 269 267
50 2 341 331 327 319 345 352 336 329 336 347 6 347 335 321 155 325 48 316 306 316 309 308 301 303 292 281 281 282 281 275 269
35 2 345 333 332 325 319 309 312 312 303 307 298 319 319 319 309 289 294 302 313 306 300 308 308 305 302 300 297 288 289 288 274
27 22 16 1 343 336 331 327 323 318 301 290 282 271 279 285 292 302 296 299 299 298 302 307 308 305 299 299 299 294 292 291 284